Regional Weather Roundup
Issued by NWS

Home | Current Version | Previous Version | Text Only | Print | Product List | Glossary Off
Versions: 1 2 3 4 5 6 7 8 9 10 11 12 13 14 15 16 17 18 19 20 21 22 23 24 25 26 27 28 29 30 31 32 33 34 35 36 37 38 39 40 41 42 43 44 45 46 47 48 49 50

000
ASUS45 KABQ 301010
RWRNM
WEATHER ROUNDUP FOR NEW MEXICO
NATIONAL WEATHER SERVICE ALBUQUERQUE NM
400 AM MDT WED JUL 30 2014

NOTE: "FAIR" MEANS FEW OR NO CLOUDS BELOW 12,000 FEET AGL WITH NO
       SIGNIFICANT WEATHER OR OBSTRUCTIONS TO VISION.

      THIS PRODUCT IS RELEASED AS TWO VERSIONS.  ONE VERSION NEAR
      THE TOP OF THE HOUR CONTAINING PRELIMINARY DATA FROM ALBUQUERQUE
      AND OTHER STATIONS.  A FINAL VERSION WITH ADDITIONAL DATA IS
      ISSUED ABOUT 10 MINUTES AFTER THE HOUR.

NMZ501-503-504-510>518-301100-
NORTHWEST PLATEAU/NORTHCENTRAL MOUNTAINS

CITY           SKY/WX    TMP DP  RH WIND       PRES   REMARKS
FARMINGTON     PTCLDY    65  52  62 W5        30.18S
LOS ALAMOS     CLOUDY    63  48  58 W7        30.30F
SANTA FE       CLOUDY    62  57  83 E3        30.24F
TAOS           CLOUDY    54  48  82 CALM      30.32S
ANGEL FIRE     FAIR      48  47  97 NE3       30.38F

$$
NMZ402-403-502-505>509-301100-
WESTCENTRAL MOUNTAINS/SOUTHWEST MOUNTAINS

CITY           SKY/WX    TMP DP  RH WIND       PRES   REMARKS
GALLUP         PTCLDY    63  55  75 S3        30.27F
SILVER CITY    PTCLDY    63  57  82 N8        30.22S

$$
NMZ407-409-411-412-301100-
SOUTHERN DESERTS

CITY           SKY/WX    TMP DP  RH WIND       PRES   REMARKS
LORDSBURG      FAIR      68  57  68 CALM      30.13S
DEMING         PTCLDY    69  64  84 W5        30.11F
LAS CRUCES     CLEAR     70  62  74 CALM      30.13S
HOLLOMAN AFB   PTCLDY    70  64  83 CALM      30.08R
ALAMOGORDO     PTCLDY    72  61  68 CALM      30.10R
T OR C         CLEAR     67  64  90 W7        30.14S

$$
NMZ519>523-301100-
CENTRAL VALLEYS/CENTRAL HIGHLANDS

CITY           SKY/WX    TMP DP  RH WIND       PRES   REMARKS
ALBUQUERQUE    MOCLDY    68  59  73 N8        30.20F
DOUBLE EAGLE   MOCLDY    63  59  88 N5        30.24S
MORIARTY ARPT  FAIR      59  55  87 NE3       30.25F
CLINES CORNERS PTCLDY    57  53  86 NW14      30.28R
BELEN          FAIR      64  62  92 E5        30.19S
SOCORRO        FAIR      64  60  87 NW7       30.16R

$$
NMZ524>526-539-540-301100-
SOUTHCENTRAL MOUNTAINS

CITY           SKY/WX    TMP DP  RH WIND       PRES   REMARKS
RUIDOSO        CLEAR     59  57  94 W6        30.30S

$$
NMZ527>531-301100-
NORTHEAST HIGHLANDS/NORTHEAST PLAINS

CITY           SKY/WX    TMP DP  RH WIND       PRES   REMARKS
LAS VEGAS      MOCLDY    56  52  86 CALM      30.26R
RATON          PTCLDY    60  55  83 N9        30.22R
CLAYTON        CLOUDY    67  61  81 N9        30.15R

$$
NMZ532>537-301100-
EASTCENTRAL PLAINS

CITY           SKY/WX    TMP DP  RH WIND       PRES   REMARKS
TUCUMCARI      CLEAR     69  63  81 SW8       30.07F
CANNON AFB     CLEAR     66  64  94 SW5       30.12F
CLOVIS AIRPORT NOT AVBL

$$
NMZ028-029-538-301100-
SOUTHEAST PLAINS

CITY           SKY/WX    TMP DP  RH WIND       PRES   REMARKS
ROSWELL        PTCLDY    70  67  90 N3        30.05F
CARLSBAD       MOCLDY    78  49  35 SE6       30.01F
HOBBS          MOCLDY    68  59  73 E6        30.08S


$$



USA.gov is the U.S. government's official web portal to all federal, state and local government web resources and services.